User: anonymous   Login
Location: Karcze
(52.0945°N, 22.4786°E)
Time: 06:55:46
(UTC+00:00)
Language:

SHAONIAN XING - Orbit

View from above orbital plane
View from above orbital plane
View from above satellite
View from above satellite

Ground track
Ground track

The orbit data is extracted from the following two-line orbital elements,

1 43199U 18015H   21341.89451139  .00005021  00000-0  18041-3 0  9997
2 43199  97.4898 115.0551 0015178   5.1707  93.1792 15.29013175214139
Epoch (UTC): 07 December 2021 21:28:05
Eccentricity: 0.0015178
inclination: 97.4898°
perigee height: 468 km
apogee height: 489 km
right ascension of ascending node: 115.0551°
argument of perigee: 5.1707°
revolutions per day: 15.29013175
mean anomaly at epoch: 93.1792°
orbit number at epoch: 21413

The dashed part of the orbit path shows where the satellite is in the earth's shadow,  

DLR